AAL2031 KDEN-KFLL

Flight info

Callsign AAL2031
Flight time 3h 18m
Altitude 35000
Route EPKEE7 DUUZE ICT RZC KM27K ACORI TEEKY4
Aircraft B738/M-SDE2E3FGHIRWXY/LB1

Departure

Time 2026-05-03 20:56
Airport Denver International Airport (KDEN)

Arrival

Time 2026-05-04 00:15
Airport Fort Lauderdale Hollywood International Airport (KFLL)
Time Latitude Longitude Altitude Speed Heading
2026-05-03 20:15 39.85941 -104.67786 5385 ft 0 kts 180°
2026-05-03 20:44 39.85963 -104.67784 5383 ft 4 kts 192°
2026-05-03 20:45 39.85988 -104.67773 5383 ft 4 kts 214°
2026-05-03 20:45 39.86006 -104.67749 5383 ft 4 kts 246°
2026-05-03 20:45 39.86010 -104.67730 5385 ft 0 kts 270°
2026-05-03 20:48 39.86011 -104.67745 5385 ft 5 kts 270°
2026-05-03 20:48 39.86011 -104.67815 5382 ft 9 kts 271°
2026-05-03 20:49 39.86013 -104.67901 5385 ft 11 kts 270°
2026-05-03 20:49 39.86013 -104.68011 5385 ft 14 kts 271°
2026-05-03 20:49 39.86016 -104.68145 5385 ft 16 kts 274°
2026-05-03 20:49 39.86033 -104.68308 5375 ft 23 kts 269°
2026-05-03 20:50 39.86030 -104.68479 5364 ft 11 kts 255°
2026-05-03 20:50 39.85957 -104.68511 5364 ft 13 kts 181°
2026-05-03 20:50 39.85859 -104.68515 5365 ft 15 kts 182°
2026-05-03 20:50 39.85749 -104.68515 5367 ft 17 kts 180°
2026-05-03 20:51 39.85668 -104.68516 5368 ft 18 kts 181°
2026-05-03 20:51 39.85535 -104.68519 5369 ft 20 kts 180°
2026-05-03 20:51 39.85388 -104.68521 5371 ft 23 kts 181°
2026-05-03 20:51 39.85255 -104.68523 5369 ft 15 kts 181°
2026-05-03 20:52 39.85207 -104.68597 5367 ft 14 kts 262°
2026-05-03 20:52 39.85203 -104.68755 5361 ft 20 kts 268°
2026-05-03 20:52 39.85198 -104.68941 5354 ft 18 kts 268°
2026-05-03 20:52 39.85197 -104.69121 5349 ft 18 kts 270°
2026-05-03 20:53 39.85200 -104.69300 5345 ft 22 kts 271°
2026-05-03 20:53 39.85202 -104.69463 5339 ft 10 kts 270°
2026-05-03 20:53 39.85203 -104.69520 5333 ft 0 kts 271°
2026-05-03 20:53 39.85203 -104.69525 5333 ft 0 kts 271°
2026-05-03 20:54 39.85203 -104.69529 5335 ft 2 kts 271°
2026-05-03 20:55 39.85204 -104.69586 5333 ft 10 kts 273°
2026-05-03 20:55 39.85255 -104.69657 5336 ft 14 kts 353°
2026-05-03 20:55 39.85444 -104.69658 5338 ft 56 kts
2026-05-03 20:55 39.86081 -104.69650 5335 ft 126 kts
2026-05-03 20:56 39.87166 -104.69639 5350 ft 183 kts
2026-05-03 20:56 39.88478 -104.69585 6160 ft 188 kts 359°
2026-05-03 20:56 39.89848 -104.69587 6753 ft 209 kts 357°
2026-05-03 20:56 39.91346 -104.69218 6861 ft 244 kts 26°
2026-05-03 20:57 39.92528 -104.67511 7247 ft 262 kts 69°
2026-05-03 20:57 39.92649 -104.65136 7724 ft 276 kts 102°
2026-05-03 20:57 39.92060 -104.62697 8243 ft 292 kts 116°
2026-05-03 20:57 39.91024 -104.60385 8958 ft 300 kts 124°
2026-05-03 20:58 39.89851 -104.58101 9610 ft 304 kts 124°
2026-05-03 20:58 39.88696 -104.55800 9941 ft 304 kts 123°
2026-05-03 20:58 39.87549 -104.53445 9992 ft 311 kts 123°
2026-05-03 20:58 39.86414 -104.51051 9994 ft 309 kts 122°
2026-05-03 20:59 39.85304 -104.48671 9993 ft 305 kts 122°
2026-05-03 20:59 39.84213 -104.46310 9994 ft 303 kts 122°
2026-05-03 20:59 39.83129 -104.43956 10009 ft 302 kts 122°
2026-05-03 20:59 39.82056 -104.41628 9992 ft 304 kts 122°
2026-05-03 21:00 39.80968 -104.39261 9980 ft 306 kts 121°
2026-05-03 21:00 39.80303 -104.37624 10028 ft 312 kts 116°
2026-05-03 21:00 39.79056 -104.33984 10266 ft 346 kts 114°
2026-05-03 21:00 39.78071 -104.31021 10612 ft 364 kts 114°
2026-05-03 21:01 39.77048 -104.27983 11314 ft 368 kts 114°
2026-05-03 21:01 39.76002 -104.24926 12083 ft 372 kts 114°
2026-05-03 21:01 39.74947 -104.21876 12764 ft 377 kts 115°
2026-05-03 21:01 39.73852 -104.18735 13442 ft 384 kts 115°
2026-05-03 21:02 39.72743 -104.15561 13843 ft 386 kts 115°
2026-05-03 21:02 39.71626 -104.12383 13841 ft 388 kts 115°
2026-05-03 21:02 39.70497 -104.09196 13831 ft 388 kts 115°
2026-05-03 21:02 39.69371 -104.06022 13838 ft 387 kts 115°
2026-05-03 21:03 39.68243 -104.02840 13837 ft 387 kts 115°
2026-05-03 21:03 39.67113 -103.99654 13834 ft 388 kts 115°
2026-05-03 21:03 39.65985 -103.96478 13835 ft 388 kts 115°
2026-05-03 21:03 39.64823 -103.93326 13833 ft 387 kts 118°
2026-05-03 21:04 39.63557 -103.90240 13834 ft 387 kts 119°
2026-05-03 21:04 39.62270 -103.87181 13838 ft 386 kts 119°
2026-05-03 21:04 39.60995 -103.84121 13834 ft 385 kts 118°
2026-05-03 21:04 39.59732 -103.81060 13828 ft 384 kts 118°
2026-05-03 21:05 39.58580 -103.78000 13827 ft 382 kts 113°
2026-05-03 21:05 39.57612 -103.74746 13837 ft 381 kts 110°
2026-05-03 21:05 39.56748 -103.71549 13837 ft 381 kts 109°
2026-05-03 21:05 39.55888 -103.68307 13843 ft 380 kts 109°
2026-05-03 21:06 39.55019 -103.65070 13836 ft 380 kts 109°
2026-05-03 21:06 39.54133 -103.61832 13846 ft 381 kts 110°
2026-05-03 21:06 39.53236 -103.58604 13841 ft 381 kts 110°
2026-05-03 21:06 39.52330 -103.55377 13843 ft 381 kts 110°
2026-05-03 21:07 39.51412 -103.52133 14014 ft 387 kts 110°
2026-05-03 21:07 39.50479 -103.48849 14735 ft 389 kts 110°
2026-05-03 21:07 39.49544 -103.45562 15587 ft 388 kts 111°
2026-05-03 21:07 39.48606 -103.42274 16344 ft 391 kts 111°
2026-05-03 21:08 39.47658 -103.38955 17018 ft 395 kts 111°
2026-05-03 21:08 39.46704 -103.35618 17769 ft 396 kts 111°
2026-05-03 21:08 39.45742 -103.32255 18422 ft 401 kts 111°
2026-05-03 21:08 39.44766 -103.28852 18921 ft 407 kts 111°
2026-05-03 21:09 39.43785 -103.25434 19409 ft 413 kts 111°
2026-05-03 21:09 39.42779 -103.21933 19940 ft 418 kts 111°
2026-05-03 21:09 39.41758 -103.18383 20454 ft 423 kts 111°
2026-05-03 21:09 39.40724 -103.14795 20967 ft 428 kts 111°
2026-05-03 21:10 39.39678 -103.11167 21454 ft 434 kts 111°
2026-05-03 21:10 39.38612 -103.07477 21904 ft 440 kts 111°
2026-05-03 21:10 39.37539 -103.03763 22437 ft 443 kts 111°
2026-05-03 21:10 39.36454 -103.00014 22949 ft 447 kts 111°
2026-05-03 21:11 39.35357 -102.96231 23426 ft 452 kts 111°
2026-05-03 21:11 39.34170 -102.92453 23819 ft 455 kts 115°
2026-05-03 21:11 39.32778 -102.88764 24257 ft 458 kts 118°
2026-05-03 21:11 39.31295 -102.85109 24647 ft 461 kts 120°
2026-05-03 21:12 39.29779 -102.81428 25000 ft 466 kts 120°
2026-05-03 21:12 39.28266 -102.77716 25392 ft 469 kts 119°
2026-05-03 21:12 39.26758 -102.73964 25837 ft 471 kts 118°
2026-05-03 21:12 39.25260 -102.70187 26249 ft 474 kts 118°
2026-05-03 21:13 39.23779 -102.66429 26612 ft 478 kts 118°
2026-05-03 21:13 39.22266 -102.62585 26978 ft 481 kts 118°
2026-05-03 21:13 39.20746 -102.58725 27347 ft 484 kts 118°
2026-05-03 21:13 39.19215 -102.54846 27713 ft 487 kts 118°
2026-05-03 21:14 39.17672 -102.50941 28069 ft 490 kts 119°
2026-05-03 21:14 39.16117 -102.47014 28411 ft 493 kts 119°
2026-05-03 21:14 39.14551 -102.43069 28743 ft 496 kts 119°
2026-05-03 21:14 39.12976 -102.39110 29053 ft 499 kts 119°
2026-05-03 21:15 39.11379 -102.35119 29317 ft 502 kts 119°
2026-05-03 21:15 39.09786 -102.31155 29604 ft 505 kts 119°
2026-05-03 21:15 39.08163 -102.27123 29911 ft 508 kts 119°
2026-05-03 21:15 39.06540 -102.23091 30247 ft 508 kts 119°
2026-05-03 21:16 39.04916 -102.19057 30669 ft 506 kts 119°
2026-05-03 21:16 39.03301 -102.15051 31024 ft 503 kts 119°
2026-05-03 21:16 39.01691 -102.11061 31437 ft 502 kts 120°
2026-05-03 21:16 39.00086 -102.07087 31776 ft 501 kts 120°
2026-05-03 21:17 38.98477 -102.03113 32136 ft 501 kts 119°
2026-05-03 21:17 38.97407 -102.00471 32354 ft 502 kts 119°
2026-05-03 21:17 38.95250 -101.95154 32792 ft 501 kts 120°
2026-05-03 21:17 38.93641 -101.91191 33192 ft 499 kts 120°
2026-05-03 21:18 38.92039 -101.87253 33568 ft 498 kts 120°
2026-05-03 21:18 38.90435 -101.83314 33899 ft 497 kts 120°
2026-05-03 21:18 38.88829 -101.79374 34162 ft 498 kts 120°
2026-05-03 21:18 38.87219 -101.75428 34406 ft 498 kts 120°
2026-05-03 21:19 38.85608 -101.71487 34679 ft 498 kts 120°
2026-05-03 21:19 38.84155 -101.67510 34848 ft 502 kts 112°
2026-05-03 21:19 38.81956 -101.58950 34836 ft 506 kts 107°
2026-05-03 21:20 38.79999 -101.50318 34823 ft 500 kts 107°
2026-05-03 21:20 38.77983 -101.41805 34819 ft 498 kts 108°
2026-05-03 21:21 38.75884 -101.33336 34834 ft 499 kts 109°
2026-05-03 21:21 38.73742 -101.24842 34836 ft 501 kts 109°
2026-05-03 21:22 38.71607 -101.16404 34836 ft 502 kts 109°
2026-05-03 21:22 38.69450 -101.07886 34834 ft 503 kts 109°
2026-05-03 21:23 38.67284 -100.99354 34827 ft 504 kts 109°
2026-05-03 21:23 38.65110 -100.90821 34875 ft 505 kts 109°
2026-05-03 21:24 38.62928 -100.82283 34877 ft 505 kts 109°
2026-05-03 21:24 38.60738 -100.73747 34871 ft 505 kts 109°
2026-05-03 21:25 38.58541 -100.65213 34870 ft 505 kts 109°
2026-05-03 21:25 38.56353 -100.56740 34861 ft 505 kts 109°
2026-05-03 21:26 38.54143 -100.48215 34835 ft 506 kts 109°
2026-05-03 21:26 38.51923 -100.39677 34824 ft 506 kts 109°
2026-05-03 21:27 38.49698 -100.31151 34823 ft 506 kts 109°
2026-05-03 21:27 38.47468 -100.22633 34821 ft 506 kts 109°
2026-05-03 21:28 38.45229 -100.14114 34827 ft 506 kts 109°
2026-05-03 21:28 38.42987 -100.05606 34819 ft 506 kts 109°
2026-05-03 21:29 38.40747 -99.97138 34828 ft 506 kts 109°
2026-05-03 21:29 38.38490 -99.88633 34829 ft 506 kts 109°
2026-05-03 21:30 38.36227 -99.80133 34842 ft 506 kts 109°
2026-05-03 21:30 38.33955 -99.71630 34836 ft 507 kts 109°
2026-05-03 21:31 38.31677 -99.63131 34838 ft 507 kts 109°
2026-05-03 21:31 38.29396 -99.54651 34837 ft 506 kts 109°
2026-05-03 21:32 38.27110 -99.46177 34846 ft 506 kts 109°
2026-05-03 21:32 38.24826 -99.37741 34843 ft 506 kts 109°
2026-05-03 21:33 38.22527 -99.29275 34866 ft 506 kts 109°
2026-05-03 21:33 38.20221 -99.20814 34869 ft 506 kts 109°
2026-05-03 21:34 38.17910 -99.12359 34871 ft 506 kts 109°
2026-05-03 21:34 38.15591 -99.03907 34878 ft 507 kts 109°
2026-05-03 21:35 38.13265 -98.95452 34867 ft 507 kts 109°
2026-05-03 21:35 38.10946 -98.87051 34864 ft 507 kts 109°
2026-05-03 21:36 38.08607 -98.78607 34865 ft 507 kts 109°
2026-05-03 21:36 38.06263 -98.70169 34868 ft 507 kts 109°
2026-05-03 21:37 38.03914 -98.61741 34850 ft 507 kts 109°
2026-05-03 21:37 38.01555 -98.53304 34848 ft 507 kts 110°
2026-05-03 21:38 37.99193 -98.44884 34851 ft 507 kts 110°
2026-05-03 21:38 37.96823 -98.36462 34853 ft 507 kts 110°
2026-05-03 21:39 37.94848 -98.29464 34863 ft 507 kts 110°
2026-05-03 21:39 37.92076 -98.19675 34855 ft 507 kts 110°
2026-05-03 21:40 37.90078 -98.12639 34836 ft 507 kts 110°
2026-05-03 21:40 37.87701 -98.04292 34849 ft 507 kts 110°
2026-05-03 21:41 37.85304 -97.95902 34864 ft 507 kts 110°
2026-05-03 21:41 37.82899 -97.87511 34861 ft 507 kts 110°
2026-05-03 21:42 37.80489 -97.79128 34857 ft 507 kts 110°
2026-05-03 21:42 37.78071 -97.70741 34860 ft 507 kts 110°
2026-05-03 21:43 37.75648 -97.62360 34864 ft 507 kts 110°
2026-05-03 21:43 37.72966 -97.54185 34877 ft 507 kts 117°
2026-05-03 21:44 37.69691 -97.46305 34894 ft 507 kts 119°
2026-05-03 21:44 37.66344 -97.38471 34905 ft 507 kts 119°
2026-05-03 21:45 37.63042 -97.30606 34890 ft 507 kts 118°
2026-05-03 21:45 37.59767 -97.22712 34888 ft 507 kts 118°
2026-05-03 21:46 37.56515 -97.14863 34888 ft 508 kts 118°
2026-05-03 21:46 37.53240 -97.06983 34890 ft 508 kts 118°
2026-05-03 21:47 37.49958 -96.99115 34888 ft 508 kts 118°
2026-05-03 21:47 37.46663 -96.91237 34910 ft 507 kts 118°
2026-05-03 21:48 37.43368 -96.83380 34922 ft 507 kts 118°
2026-05-03 21:48 37.40066 -96.75525 34916 ft 508 kts 118°
2026-05-03 21:49 37.36756 -96.67668 34924 ft 508 kts 119°
2026-05-03 21:49 37.33467 -96.59881 34928 ft 508 kts 119°
2026-05-03 21:50 37.30148 -96.52040 34928 ft 508 kts 119°
2026-05-03 21:50 37.26827 -96.44217 34935 ft 507 kts 119°
2026-05-03 21:51 37.23504 -96.36406 34931 ft 507 kts 119°
2026-05-03 21:51 37.20175 -96.28600 34937 ft 507 kts 119°
2026-05-03 21:52 37.16863 -96.20853 34939 ft 507 kts 119°
2026-05-03 21:52 37.13527 -96.13068 34942 ft 507 kts 119°
2026-05-03 21:53 37.10186 -96.05292 34956 ft 507 kts 119°
2026-05-03 21:53 37.06841 -95.97525 34925 ft 506 kts 119°
2026-05-03 21:54 37.03497 -95.89777 34940 ft 506 kts 119°
2026-05-03 21:54 37.00146 -95.82031 34936 ft 506 kts 119°
2026-05-03 21:55 36.96791 -95.74297 34939 ft 506 kts 119°
2026-05-03 21:55 36.93431 -95.66568 34953 ft 505 kts 119°
2026-05-03 21:56 36.90068 -95.58849 34956 ft 505 kts 119°
2026-05-03 21:56 36.86719 -95.51181 34947 ft 505 kts 119°
2026-05-03 21:57 36.83342 -95.43468 34948 ft 505 kts 119°
2026-05-03 21:57 36.79965 -95.35774 34968 ft 505 kts 119°
2026-05-03 21:58 36.76587 -95.28095 34982 ft 505 kts 119°
2026-05-03 21:58 36.73203 -95.20421 34974 ft 505 kts 119°
2026-05-03 21:59 36.69835 -95.12800 34980 ft 505 kts 119°
2026-05-03 21:59 36.66442 -95.05139 34984 ft 505 kts 119°
2026-05-03 22:00 36.63043 -94.97484 34966 ft 504 kts 119°
2026-05-03 22:00 36.59641 -94.89840 34978 ft 504 kts 119°
2026-05-03 22:01 36.56237 -94.82209 35004 ft 505 kts 120°
2026-05-03 22:01 36.52828 -94.74584 35006 ft 505 kts 120°
2026-05-03 22:02 36.49407 -94.66951 35015 ft 505 kts 120°
2026-05-03 22:02 36.45985 -94.59332 35015 ft 505 kts 120°
2026-05-03 22:03 36.42583 -94.51773 35020 ft 505 kts 120°
2026-05-03 22:03 36.39151 -94.44167 35003 ft 505 kts 120°
2026-05-03 22:04 36.35718 -94.36577 35011 ft 504 kts 120°
2026-05-03 22:04 36.32279 -94.28987 35005 ft 504 kts 120°
2026-05-03 22:05 36.28838 -94.21411 35028 ft 504 kts 120°
2026-05-03 22:05 36.25409 -94.13878 35059 ft 504 kts 120°
2026-05-03 22:06 36.22121 -94.06201 35055 ft 504 kts 116°
2026-05-03 22:06 36.19051 -93.98402 35056 ft 504 kts 115°
2026-05-03 22:07 36.15991 -93.90596 35042 ft 504 kts 116°
2026-05-03 22:07 36.12895 -93.82811 35044 ft 504 kts 116°
2026-05-03 22:08 36.09770 -93.75034 35040 ft 505 kts 116°
2026-05-03 22:08 36.06635 -93.67260 35036 ft 505 kts 116°
2026-05-03 22:09 36.03515 -93.59538 35034 ft 505 kts 116°
2026-05-03 22:10 35.98797 -93.47890 35041 ft 505 kts 116°
2026-05-03 22:10 35.95645 -93.40128 35042 ft 506 kts 116°
2026-05-03 22:11 35.92485 -93.32367 35038 ft 506 kts 116°
2026-05-03 22:11 35.89313 -93.24597 35044 ft 506 kts 116°
2026-05-03 22:12 35.86142 -93.16845 35035 ft 506 kts 116°
2026-05-03 22:12 35.82967 -93.09104 35035 ft 506 kts 116°
2026-05-03 22:13 35.79809 -93.01421 35052 ft 506 kts 116°
2026-05-03 22:13 35.76622 -92.93685 35049 ft 506 kts 116°
2026-05-03 22:14 35.73428 -92.85952 35044 ft 506 kts 116°
2026-05-03 22:14 35.70236 -92.78242 35038 ft 506 kts 116°
2026-05-03 22:15 35.67058 -92.70582 35045 ft 505 kts 116°
2026-05-03 22:15 35.63860 -92.62894 35049 ft 505 kts 116°
2026-05-03 22:16 35.60658 -92.55212 35041 ft 505 kts 116°
2026-05-03 22:16 35.57449 -92.47531 35049 ft 505 kts 116°
2026-05-03 22:17 35.54238 -92.39865 35045 ft 505 kts 117°
2026-05-03 22:17 35.51021 -92.32200 35046 ft 505 kts 117°
2026-05-03 22:18 35.47795 -92.24534 35045 ft 505 kts 117°
2026-05-03 22:18 35.44566 -92.16877 35058 ft 505 kts 117°
2026-05-03 22:19 35.41357 -92.09285 35081 ft 504 kts 117°
2026-05-03 22:19 35.38125 -92.01657 35074 ft 504 kts 117°
2026-05-03 22:20 35.34889 -91.94035 35084 ft 504 kts 117°
2026-05-03 22:20 35.31653 -91.86432 35076 ft 503 kts 117°
2026-05-03 22:21 35.28411 -91.78831 35066 ft 503 kts 117°
2026-05-03 22:21 35.25173 -91.71256 35062 ft 503 kts 117°
2026-05-03 22:22 35.21924 -91.63675 35057 ft 501 kts 117°
2026-05-03 22:22 35.18704 -91.56177 35069 ft 501 kts 117°
2026-05-03 22:23 35.15459 -91.48636 35117 ft 501 kts 117°
2026-05-03 22:23 35.12214 -91.41115 35107 ft 500 kts 117°
2026-05-03 22:24 35.08964 -91.33597 35109 ft 500 kts 117°
2026-05-03 22:24 35.05711 -91.26089 35109 ft 500 kts 117°
2026-05-03 22:25 35.02451 -91.18582 35106 ft 499 kts 117°
2026-05-03 22:25 34.99217 -91.11150 35120 ft 499 kts 117°
2026-05-03 22:26 34.95955 -91.03671 35100 ft 499 kts 117°
2026-05-03 22:26 34.92694 -90.96211 35101 ft 499 kts 117°
2026-05-03 22:27 34.89427 -90.88754 35088 ft 498 kts 117°
2026-05-03 22:27 34.86174 -90.81344 35091 ft 498 kts 117°
2026-05-03 22:28 34.82907 -90.73920 35111 ft 498 kts 118°
2026-05-03 22:28 34.79629 -90.66486 35100 ft 498 kts 118°
2026-05-03 22:29 34.76908 -90.60327 35099 ft 497 kts 118°
2026-05-03 22:29 34.73633 -90.52928 35096 ft 497 kts 118°
2026-05-03 22:30 34.70349 -90.45527 35084 ft 496 kts 118°
2026-05-03 22:30 34.67071 -90.38154 35111 ft 496 kts 118°
2026-05-03 22:31 34.63812 -90.30838 35099 ft 495 kts 118°
2026-05-03 22:31 34.60530 -90.23488 35092 ft 495 kts 118°
2026-05-03 22:32 34.57251 -90.16158 35100 ft 494 kts 118°
2026-05-03 22:32 34.53965 -90.08827 35108 ft 494 kts 118°
2026-05-03 22:33 34.50679 -90.01513 35118 ft 494 kts 118°
2026-05-03 22:33 34.46870 -89.94597 35121 ft 493 kts 127°
2026-05-03 22:34 34.42664 -89.88009 35102 ft 494 kts 128°
2026-05-03 22:34 34.38454 -89.81441 35103 ft 494 kts 128°
2026-05-03 22:35 34.34273 -89.74819 35102 ft 495 kts 127°
2026-05-03 22:35 34.30135 -89.68217 35123 ft 495 kts 127°
2026-05-03 22:36 34.25964 -89.61564 35124 ft 496 kts 127°
2026-05-03 22:36 34.21790 -89.54922 35124 ft 496 kts 127°
2026-05-03 22:37 34.17611 -89.48289 35122 ft 496 kts 127°
2026-05-03 22:37 34.13436 -89.41676 35130 ft 496 kts 127°
2026-05-03 22:38 34.09247 -89.35052 35131 ft 496 kts 127°
2026-05-03 22:38 34.05081 -89.28478 35138 ft 496 kts 127°
2026-05-03 22:39 34.00887 -89.21870 35152 ft 496 kts 127°
2026-05-03 22:39 33.96692 -89.15274 35136 ft 496 kts 128°
2026-05-03 22:40 33.92500 -89.08694 35131 ft 494 kts 127°
2026-05-03 22:40 33.88306 -89.02123 35148 ft 493 kts 127°
2026-05-03 22:41 33.84122 -88.95579 35141 ft 493 kts 127°
2026-05-03 22:41 33.79942 -88.89054 35146 ft 492 kts 127°
2026-05-03 22:42 33.75793 -88.82588 35162 ft 492 kts 128°
2026-05-03 22:42 33.71613 -88.76085 35125 ft 491 kts 128°
2026-05-03 22:43 33.67431 -88.69592 35107 ft 491 kts 128°
2026-05-03 22:43 33.63249 -88.63110 35097 ft 490 kts 128°
2026-05-03 22:44 33.59071 -88.56645 35089 ft 490 kts 128°
2026-05-03 22:44 33.54890 -88.50188 35084 ft 490 kts 128°
2026-05-03 22:45 33.50702 -88.43730 35095 ft 490 kts 128°
2026-05-03 22:45 33.46512 -88.37282 35124 ft 490 kts 128°
2026-05-03 22:46 33.42320 -88.30841 35124 ft 490 kts 128°
2026-05-03 22:46 33.38126 -88.24409 35123 ft 490 kts 128°
2026-05-03 22:47 33.33953 -88.18019 35123 ft 490 kts 128°
2026-05-03 22:47 33.29756 -88.11605 35123 ft 490 kts 128°
2026-05-03 22:48 33.25553 -88.05193 35129 ft 490 kts 128°
2026-05-03 22:48 33.21342 -87.98780 35125 ft 489 kts 128°
2026-05-03 22:49 33.17139 -87.92390 35131 ft 489 kts 128°
2026-05-03 22:49 33.12935 -87.86009 35127 ft 488 kts 128°
2026-05-03 22:50 33.08733 -87.79643 35132 ft 488 kts 128°
2026-05-03 22:50 33.04531 -87.73288 35127 ft 488 kts 128°
2026-05-03 22:51 33.00354 -87.66980 35135 ft 488 kts 128°
2026-05-03 22:51 32.96149 -87.60642 35131 ft 487 kts 128°
2026-05-03 22:52 32.91942 -87.54313 35135 ft 487 kts 128°
2026-05-03 22:52 32.87736 -87.47994 35146 ft 487 kts 128°
2026-05-03 22:53 32.83530 -87.41686 35140 ft 486 kts 129°
2026-05-03 22:53 32.79322 -87.35386 35126 ft 486 kts 129°
2026-05-03 22:54 32.75137 -87.29132 35134 ft 485 kts 129°
2026-05-03 22:54 32.70929 -87.22853 35116 ft 485 kts 129°
2026-05-03 22:55 32.66722 -87.16587 35107 ft 485 kts 130°
2026-05-03 22:55 32.62511 -87.10325 35105 ft 485 kts 130°
2026-05-03 22:56 32.58301 -87.04076 35068 ft 485 kts 131°
2026-05-03 22:56 32.54111 -86.97869 35083 ft 484 kts 131°
2026-05-03 22:57 32.49897 -86.91633 35088 ft 484 kts 132°
2026-05-03 22:57 32.45680 -86.85402 35065 ft 484 kts 132°
2026-05-03 22:58 32.41458 -86.79176 35070 ft 485 kts 132°
2026-05-03 22:58 32.37231 -86.72951 35074 ft 485 kts 132°
2026-05-03 22:59 32.33028 -86.66775 35097 ft 484 kts 132°
2026-05-03 22:59 32.28802 -86.60572 35110 ft 485 kts 133°
2026-05-03 23:00 32.24567 -86.54370 35123 ft 485 kts 134°
2026-05-03 23:00 32.20326 -86.48169 35129 ft 485 kts 134°
2026-05-03 23:01 32.16082 -86.41970 35133 ft 485 kts 134°
2026-05-03 23:01 32.11832 -86.35774 35117 ft 485 kts 134°
2026-05-03 23:02 32.07578 -86.29583 35127 ft 486 kts 134°
2026-05-03 23:02 32.03351 -86.23440 35125 ft 486 kts 134°
2026-05-03 23:03 31.99090 -86.17257 35117 ft 485 kts 135°
2026-05-03 23:03 31.94830 -86.11087 35134 ft 485 kts 135°
2026-05-03 23:04 31.90573 -86.04932 35121 ft 485 kts 135°
2026-05-03 23:04 31.86306 -85.98772 35135 ft 485 kts 135°
2026-05-03 23:05 31.82037 -85.92618 35128 ft 485 kts 135°
2026-05-03 23:05 31.77763 -85.86465 35124 ft 486 kts 135°
2026-05-03 23:06 31.73365 -85.80459 35125 ft 483 kts 138°
2026-05-03 23:06 31.68828 -85.74659 35113 ft 482 kts 140°
2026-05-03 23:07 31.64309 -85.68888 35123 ft 483 kts 139°
2026-05-03 23:07 31.59779 -85.63046 35124 ft 484 kts 139°
2026-05-03 23:08 31.55258 -85.57192 35126 ft 485 kts 139°
2026-05-03 23:08 31.50730 -85.51333 35136 ft 485 kts 139°
2026-05-03 23:09 31.46195 -85.45477 35147 ft 485 kts 139°
2026-05-03 23:09 31.41660 -85.39631 35125 ft 484 kts 140°
2026-05-03 23:10 31.37122 -85.33792 35140 ft 484 kts 140°
2026-05-03 23:10 31.32586 -85.27964 35133 ft 485 kts 140°
2026-05-03 23:11 31.28039 -85.22131 35130 ft 485 kts 140°
2026-05-03 23:11 31.23481 -85.16293 35125 ft 486 kts 140°
2026-05-03 23:12 31.18951 -85.10500 35121 ft 486 kts 140°
2026-05-03 23:12 31.14384 -85.04667 35059 ft 486 kts 141°
2026-05-03 23:13 31.09825 -84.98853 35110 ft 485 kts 141°
2026-05-03 23:13 31.05270 -84.93056 35113 ft 485 kts 141°
2026-05-03 23:14 31.00710 -84.87261 35118 ft 485 kts 141°
2026-05-03 23:14 30.96147 -84.81469 35118 ft 485 kts 141°
2026-05-03 23:15 30.91605 -84.75714 35114 ft 485 kts 141°
2026-05-03 23:15 30.87030 -84.69924 35113 ft 485 kts 141°
2026-05-03 23:16 30.82452 -84.64141 35093 ft 484 kts 142°
2026-05-03 23:16 30.77884 -84.58378 35108 ft 485 kts 142°
2026-05-03 23:17 30.74081 -84.53587 35117 ft 485 kts 142°
2026-05-03 23:17 30.69505 -84.47832 35110 ft 485 kts 142°
2026-05-03 23:18 30.64924 -84.42077 35123 ft 485 kts 142°
2026-05-03 23:18 30.60340 -84.36328 35107 ft 485 kts 142°
2026-05-03 23:19 30.55749 -84.30577 35098 ft 485 kts 142°
2026-05-03 23:19 30.51155 -84.24831 35099 ft 485 kts 142°
2026-05-03 23:20 30.46594 -84.19136 35109 ft 485 kts 142°
2026-05-03 23:20 30.42001 -84.13405 35107 ft 485 kts 142°
2026-05-03 23:21 30.37368 -84.07734 35093 ft 478 kts 148°
2026-05-03 23:21 30.34698 -84.05625 35133 ft 457 kts 161°
2026-05-03 23:21 30.31920 -84.03844 35110 ft 457 kts 162°
2026-05-03 23:22 30.23550 -83.98450 35088 ft 459 kts 161°
2026-05-03 23:22 30.17995 -83.94788 35102 ft 460 kts 161°
2026-05-03 23:23 30.12469 -83.91128 35102 ft 461 kts 161°
2026-05-03 23:23 30.06887 -83.87433 35100 ft 462 kts 161°
2026-05-03 23:24 30.01295 -83.83740 35099 ft 462 kts 161°
2026-05-03 23:24 29.95702 -83.80053 35061 ft 463 kts 161°
2026-05-03 23:25 29.90119 -83.76376 35095 ft 462 kts 162°
2026-05-03 23:25 29.84566 -83.72724 35102 ft 463 kts 162°
2026-05-03 23:26 29.78961 -83.69044 35099 ft 463 kts 162°
2026-05-03 23:26 29.73356 -83.65372 35099 ft 463 kts 162°
2026-05-03 23:27 29.67753 -83.61703 35099 ft 463 kts 162°
2026-05-03 23:27 29.62152 -83.58039 35095 ft 462 kts 162°
2026-05-03 23:28 29.56583 -83.54401 35098 ft 463 kts 162°
2026-05-03 23:28 29.50989 -83.50752 35096 ft 463 kts 162°
2026-05-03 23:29 29.45384 -83.47100 35098 ft 463 kts 162°
2026-05-03 23:29 29.39811 -83.43473 35093 ft 463 kts 162°
2026-05-03 23:30 29.34214 -83.39834 35087 ft 462 kts 163°
2026-05-03 23:30 29.28622 -83.36203 35088 ft 462 kts 163°
2026-05-03 23:31 29.23029 -83.32568 35091 ft 462 kts 163°
2026-05-03 23:31 29.17447 -83.28901 35087 ft 462 kts 162°
2026-05-03 23:32 29.11863 -83.25225 35084 ft 462 kts 162°
2026-05-03 23:32 29.06286 -83.21563 35035 ft 462 kts 163°
2026-05-03 23:33 29.00748 -83.17932 35075 ft 460 kts 163°
2026-05-03 23:33 28.95183 -83.14292 35070 ft 460 kts 163°
2026-05-03 23:34 28.89627 -83.10662 35074 ft 459 kts 163°
2026-05-03 23:34 28.84091 -83.07050 35083 ft 458 kts 163°
2026-05-03 23:35 28.78592 -83.03466 35085 ft 458 kts 163°
2026-05-03 23:35 28.73069 -82.99869 35070 ft 456 kts 164°
2026-05-03 23:36 28.67552 -82.96283 35072 ft 456 kts 164°
2026-05-03 23:36 28.62037 -82.92702 35074 ft 456 kts 164°
2026-05-03 23:37 28.56524 -82.89127 35074 ft 456 kts 164°
2026-05-03 23:37 28.51013 -82.85557 35071 ft 456 kts 164°
2026-05-03 23:38 28.45527 -82.82008 35021 ft 456 kts 164°
2026-05-03 23:38 28.40013 -82.78444 35059 ft 456 kts 164°
2026-05-03 23:39 28.34501 -82.74887 35058 ft 456 kts 164°
2026-05-03 23:39 28.28981 -82.71328 35064 ft 457 kts 164°
2026-05-03 23:40 28.23446 -82.67765 35061 ft 457 kts 164°
2026-05-03 23:40 28.17902 -82.64198 35064 ft 458 kts 164°
2026-05-03 23:41 28.12357 -82.60634 35053 ft 458 kts 163°
2026-05-03 23:41 28.06804 -82.57071 35054 ft 458 kts 163°
2026-05-03 23:42 28.01310 -82.53550 35056 ft 459 kts 163°
2026-05-03 23:42 27.98450 -82.51932 35045 ft 444 kts 173°
2026-05-03 23:42 27.95560 -82.50822 35061 ft 437 kts 176°
2026-05-03 23:43 27.89780 -82.48910 35047 ft 435 kts 177°
2026-05-03 23:43 27.83959 -82.46966 35011 ft 436 kts 176°
2026-05-03 23:44 27.78150 -82.44942 35038 ft 437 kts 175°
2026-05-03 23:44 27.72334 -82.42883 35053 ft 438 kts 175°
2026-05-03 23:45 27.66500 -82.40816 35056 ft 439 kts 175°
2026-05-03 23:45 27.60694 -82.38763 35036 ft 439 kts 175°
2026-05-03 23:46 27.54861 -82.36703 35050 ft 439 kts 175°
2026-05-03 23:46 27.49026 -82.34647 35055 ft 439 kts 175°
2026-05-03 23:47 27.43192 -82.32592 35058 ft 439 kts 175°
2026-05-03 23:47 27.37360 -82.30490 35050 ft 445 kts 170°
2026-05-03 23:48 27.34534 -82.28921 35063 ft 458 kts 163°
2026-05-03 23:48 27.31763 -82.27133 35050 ft 461 kts 162°
2026-05-03 23:48 27.29001 -82.25288 34913 ft 462 kts 161°
2026-05-03 23:48 27.26243 -82.23450 34579 ft 457 kts 162°
2026-05-03 23:49 27.23521 -82.21659 34165 ft 449 kts 162°
2026-05-03 23:49 27.20837 -82.19923 33734 ft 442 kts 162°
2026-05-03 23:49 27.18176 -82.18226 33297 ft 437 kts 162°
2026-05-03 23:49 27.15546 -82.16561 32888 ft 430 kts 162°
2026-05-03 23:50 27.12954 -82.14924 32480 ft 425 kts 162°
2026-05-03 23:50 27.11243 -82.13847 32224 ft 427 kts 162°
2026-05-03 23:50 27.07753 -82.11660 31707 ft 439 kts 162°
2026-05-03 23:50 27.05104 -82.09986 31283 ft 434 kts 161°
2026-05-03 23:51 27.02488 -82.08325 30872 ft 430 kts 161°
2026-05-03 23:51 26.99890 -82.06680 30461 ft 427 kts 161°
2026-05-03 23:51 26.97313 -82.05052 30028 ft 423 kts 161°
2026-05-03 23:51 26.94904 -82.03080 29552 ft 440 kts 144°
2026-05-03 23:52 26.92784 -82.00574 29151 ft 447 kts 142°
2026-05-03 23:52 26.90677 -81.97997 28719 ft 447 kts 141°
2026-05-03 23:52 26.88588 -81.95439 28287 ft 442 kts 142°
2026-05-03 23:52 26.86511 -81.92930 27878 ft 436 kts 142°
2026-05-03 23:53 26.84444 -81.90466 27475 ft 431 kts 142°
2026-05-03 23:53 26.82396 -81.88048 27126 ft 425 kts 143°
2026-05-03 23:53 26.80425 -81.85721 27181 ft 411 kts 143°
2026-05-03 23:53 26.78440 -81.83392 27240 ft 421 kts 143°
2026-05-03 23:54 26.76379 -81.80985 27253 ft 435 kts 143°
2026-05-03 23:54 26.74274 -81.78534 27237 ft 434 kts 143°
2026-05-03 23:54 26.72212 -81.76126 26964 ft 426 kts 143°
2026-05-03 23:54 26.70162 -81.73737 26490 ft 423 kts 143°
2026-05-03 23:55 26.68121 -81.71367 25954 ft 423 kts 143°
2026-05-03 23:55 26.66082 -81.69001 25475 ft 421 kts 143°
2026-05-03 23:55 26.64060 -81.66652 25066 ft 417 kts 143°
2026-05-03 23:55 26.62095 -81.64270 24606 ft 418 kts 138°
2026-05-03 23:56 26.60313 -81.61740 24144 ft 420 kts 134°
2026-05-03 23:56 26.58592 -81.59104 23717 ft 419 kts 133°
2026-05-03 23:56 26.56899 -81.56470 23300 ft 415 kts 133°
2026-05-03 23:56 26.55216 -81.53880 22856 ft 411 kts 134°
2026-05-03 23:57 26.53529 -81.51322 22417 ft 407 kts 134°
2026-05-03 23:57 26.51843 -81.48797 21972 ft 403 kts 134°
2026-05-03 23:57 26.50159 -81.46293 21541 ft 400 kts 134°
2026-05-03 23:57 26.48488 -81.43819 21118 ft 397 kts 134°
2026-05-03 23:58 26.46851 -81.41395 20711 ft 394 kts 134°
2026-05-03 23:58 26.45209 -81.38967 20303 ft 391 kts 134°
2026-05-03 23:58 26.43576 -81.36550 19902 ft 388 kts 134°
2026-05-03 23:58 26.41955 -81.34151 19504 ft 385 kts 134°
2026-05-03 23:59 26.40328 -81.31786 19118 ft 381 kts 136°
2026-05-03 23:59 26.38649 -81.29518 18735 ft 377 kts 137°
2026-05-03 23:59 26.36959 -81.27297 18343 ft 375 kts 137°
2026-05-03 23:59 26.35272 -81.25082 17858 ft 374 kts 136°
2026-05-04 00:00 26.33598 -81.22868 17436 ft 372 kts 136°
2026-05-04 00:00 26.31944 -81.20664 17031 ft 369 kts 136°
2026-05-04 00:00 26.30305 -81.18476 16634 ft 366 kts 136°
2026-05-04 00:00 26.28680 -81.16306 16215 ft 363 kts 135°
2026-05-04 00:01 26.27059 -81.14161 15848 ft 360 kts 136°
2026-05-04 00:01 26.25469 -81.12070 15458 ft 357 kts 136°
2026-05-04 00:01 26.23866 -81.09965 15063 ft 356 kts 135°
2026-05-04 00:01 26.22271 -81.07871 14678 ft 354 kts 135°
2026-05-04 00:02 26.20681 -81.05781 14304 ft 352 kts 135°
2026-05-04 00:02 26.19105 -81.03710 13942 ft 349 kts 135°
2026-05-04 00:02 26.17534 -81.01645 13548 ft 347 kts 135°
2026-05-04 00:02 26.15997 -80.99624 13316 ft 333 kts 135°
2026-05-04 00:03 26.14732 -80.97537 13109 ft 325 kts 116°
2026-05-04 00:03 26.14162 -80.95124 12735 ft 321 kts 103°
2026-05-04 00:03 26.13774 -80.92690 12244 ft 318 kts 102°
2026-05-04 00:03 26.13402 -80.90265 11742 ft 316 kts 102°
2026-05-04 00:04 26.13026 -80.87865 11267 ft 314 kts 102°
2026-05-04 00:04 26.12772 -80.86285 10961 ft 312 kts 102°
2026-05-04 00:04 26.12255 -80.83143 10352 ft 309 kts 102°
2026-05-04 00:04 26.11866 -80.80804 9913 ft 306 kts 102°
2026-05-04 00:05 26.11481 -80.78491 9586 ft 298 kts 102°
2026-05-04 00:05 26.11237 -80.77016 9646 ft 289 kts 102°
2026-05-04 00:05 26.10888 -80.74793 9581 ft 293 kts 101°
2026-05-04 00:05 26.10586 -80.72536 9156 ft 296 kts 99°
2026-05-04 00:06 26.10294 -80.70271 8642 ft 296 kts 99°
2026-05-04 00:06 26.09999 -80.68003 8124 ft 296 kts 99°
2026-05-04 00:06 26.09698 -80.65733 7665 ft 294 kts 99°
2026-05-04 00:06 26.09398 -80.63497 7245 ft 291 kts 99°
2026-05-04 00:07 26.09099 -80.61291 6951 ft 282 kts 99°
2026-05-04 00:07 26.08818 -80.59221 6863 ft 261 kts 99°
2026-05-04 00:07 26.08554 -80.57291 6728 ft 243 kts 100°
2026-05-04 00:07 26.08307 -80.55491 6425 ft 237 kts 100°
2026-05-04 00:08 26.08059 -80.53689 6014 ft 234 kts 100°
2026-05-04 00:08 26.07827 -80.51913 5652 ft 230 kts 96°
2026-05-04 00:08 26.07786 -80.50140 5246 ft 229 kts 90°
2026-05-04 00:08 26.07805 -80.48385 4866 ft 226 kts 90°
2026-05-04 00:09 26.07818 -80.46674 4634 ft 216 kts 90°
2026-05-04 00:09 26.07822 -80.45039 4457 ft 208 kts 91°
2026-05-04 00:09 26.07820 -80.43436 4340 ft 207 kts 91°
2026-05-04 00:09 26.07816 -80.41838 4208 ft 205 kts 90°
2026-05-04 00:10 26.07840 -80.40260 4033 ft 205 kts 90°
2026-05-04 00:10 26.07851 -80.38680 3759 ft 202 kts 90°
2026-05-04 00:10 26.07846 -80.37129 3520 ft 199 kts 91°
2026-05-04 00:10 26.07835 -80.35591 3265 ft 197 kts 91°
2026-05-04 00:11 26.07823 -80.34080 3019 ft 194 kts 90°
2026-05-04 00:11 26.07811 -80.32579 2764 ft 194 kts 91°
2026-05-04 00:11 26.07799 -80.31095 2514 ft 192 kts 90°
2026-05-04 00:11 26.07788 -80.29628 2292 ft 186 kts 90°
2026-05-04 00:12 26.07777 -80.28181 2026 ft 187 kts 90°
2026-05-04 00:12 26.07766 -80.26741 1783 ft 185 kts 89°
2026-05-04 00:12 26.07756 -80.25367 1527 ft 169 kts 89°
2026-05-04 00:12 26.07747 -80.24121 1320 ft 156 kts 89°
2026-05-04 00:13 26.07742 -80.22936 1096 ft 152 kts 89°
2026-05-04 00:13 26.07728 -80.21747 886 ft 153 kts 89°
2026-05-04 00:13 26.07733 -80.20560 670 ft 153 kts 89°
2026-05-04 00:13 26.07713 -80.19379 524 ft 151 kts 90°
2026-05-04 00:14 26.07706 -80.18189 330 ft 156 kts 89°
2026-05-04 00:14 26.07700 -80.16982 110 ft 155 kts 88°
2026-05-04 00:14 26.07690 -80.15828 23 ft 138 kts 88°
2026-05-04 00:14 26.07687 -80.14976 19 ft 80 kts 90°
2026-05-04 00:15 26.07632 -80.14604 27 ft 19 kts 115°
2026-05-04 00:15 26.07614 -80.14565 27 ft 0 kts 117°
2026-05-04 00:16 26.07581 -80.14499 27 ft 18 kts 117°
2026-05-04 00:17 26.07559 -80.14359 25 ft 16 kts 88°
2026-05-04 00:17 26.07544 -80.14247 25 ft 14 kts 128°
2026-05-04 00:17 26.07456 -80.14198 26 ft 11 kts 156°
2026-05-04 00:17 26.07376 -80.14191 22 ft 2 kts 180°
2026-05-04 00:18 26.07350 -80.14210 21 ft 4 kts 239°
2026-05-04 00:18 26.07344 -80.14251 22 ft 1 kts 268°
2026-05-04 00:18 26.07344 -80.14260 22 ft 0 kts 271°